,,Stat5,,Stat1,,Stat2,,Stat3,,Stat4,,Wind1,,Wind1,
time,status,PA1M_AVG,status,PR1M_SUM,status,RH1M_AVG,status,SR1M_AVG,status,TA1M_AVG,status,W1dAve1m,status,W1sAve1m,
2000-04-26, 00:00:00,VALID,916.654,VALID,0,VALID,97.5804,VALID,-0.0679233,VALID,18.2175,VALID,81,VALID,0,
2000-04-26, 00:01:00,VALID,916.659,VALID,0,VALID,97.452,VALID,-0.0679233,VALID,18.1855,VALID,82,VALID,0,
2000-04-26, 00:02:00,VALID,916.636,VALID,0,VALID,97.2447,VALID,-0.0679233,VALID,18.1373,VALID,128,VALID,0,
2000-04-26, 00:03:00,VALID,916.639,VALID,0,VALID,97.1569,VALID,-0.0509425,VALID,18.0759,VALID,243,VALID,0,
2000-04-26, 00:04:00,VALID,916.632,VALID,0,VALID,97.3286,VALID,-0.0339617,VALID,18.03,VALID,256,VALID,0.0963542,
2000-04-26, 00:05:00,VALID,916.616,VALID,0,VALID,97.4507,VALID,-0.0339617,VALID,18.0046,VALID,240,VALID,0.192909,
2000-04-26, 00:06:00,VALID,916.598,VALID,0,VALID,97.6198,VALID,-0.0509425,VALID,17.9853,VALID,233,VALID,0,
2000-04-26, 00:07:00,VALID,916.584,VALID,0,VALID,97.7521,VALID,-0.0509425,VALID,17.9823,VALID,233,VALID,0,
2000-04-26, 00:08:00,VALID,916.593,VALID,0,VALID,97.7775,VALID,-0.0509425,VALID,17.9659,VALID,233,VALID,0,
2000-04-26, 00:09:00,VALID,916.581,VALID,0,VALID,97.8945,VALID,-0.0339617,VALID,17.9527,VALID,233,VALID,0,
2000-04-26, 00:10:00,VALID,916.569,VALID,0,VALID,98.0165,VALID,-0.0169808,VALID,17.9627,VALID,233,VALID,0,
2000-04-26, 00:11:00,VALID,916.564,VALID,0,VALID,98.0547,VALID,-0.0509425,VALID,17.9631,VALID,233,VALID,0,
2000-04-26, 00:12:00,VALID,916.559,VALID,0,VALID,97.9619,VALID,-0.0339617,VALID,17.9336,VALID,233,VALID,0,
2000-04-26, 00:13:00,VALID,916.535,VALID,0,VALID,97.9046,VALID,-0.0509425,VALID,17.9078,VALID,233,VALID,0,
2000-04-26, 00:14:00,VALID,916.521,VALID,0,VALID,97.8665,VALID,-0.0679233,VALID,17.8791,VALID,224,VALID,0,
2000-04-26, 00:15:00,VALID,916.518,VALID,0,VALID,97.8042,VALID,-0.0339617,VALID,17.83,VALID,149,VALID,0,
2000-04-26, 00:16:00,VALID,916.511,VALID,0,VALID,98.0547,VALID,-0.0169808,VALID,17.8399,VALID,111,VALID,0,
2000-04-26, 00:17:00,VALID,916.515,VALID,0,VALID,98.0865,VALID,-0.0339617,VALID,17.8402,VALID,98,VALID,0,
2000-04-26, 00:18:00,VALID,916.506,VALID,0,VALID,98.1145,VALID,-0.0339617,VALID,17.8275,VALID,94,VALID,0,
2000-04-26, 00:19:00,VALID,916.495,VALID,0,VALID,98.2225,VALID,-0.0679233,VALID,17.8466,VALID,94,VALID,0,
2000-04-26, 00:20:00,VALID,916.476,VALID,0,VALID,98.3294,VALID,-0.0849042,VALID,17.8473,VALID,99,VALID,0,
2000-04-26, 00:21:00,VALID,916.444,VALID,0,VALID,98.3535,VALID,-0.0169808,VALID,17.8369,VALID,178,VALID,0,
2000-04-26, 00:22:00,VALID,916.43,VALID,0,VALID,98.4794,VALID,-0.0509425,VALID,17.8529,VALID,175,VALID,0,
2000-04-26, 00:23:00,VALID,916.415,VALID,0,VALID,98.5048,VALID,-0.0849042,VALID,17.869,VALID,175,VALID,0,
2000-04-26, 00:24:00,VALID,916.409,VALID,0,VALID,98.4133,VALID,-0.0339617,VALID,17.8466,VALID,175,VALID,0,
2000-04-26, 00:25:00,VALID,916.406,VALID,0,VALID,98.4336,VALID,-0.0679233,VALID,17.8335,VALID,162,VALID,0,
2000-04-26, 00:26:00,VALID,916.398,VALID,0,VALID,98.6002,VALID,-0.0679233,VALID,17.8725,VALID,168,VALID,0,
2000-04-26, 00:27:00,VALID,916.37,VALID,0,VALID,98.4756,VALID,-0.0509425,VALID,17.8727,VALID,177,VALID,0,
2000-04-26, 00:28:00,VALID,916.388,VALID,0,VALID,98.3497,VALID,-0.0169808,VALID,17.8427,VALID,176,VALID,0,
2000-04-26, 00:29:00,VALID,916.365,VALID,0,VALID,98.3001,VALID,-0.0339617,VALID,17.8503,VALID,176,VALID,0,
2000-04-26, 00:30:00,VALID,916.356,VALID,0,VALID,98.4642,VALID,-0.0849042,VALID,17.8499,VALID,176,VALID,0,
2000-04-26, 00:31:00,VALID,916.332,VALID,0,VALID,98.5684,VALID,-0.0849042,VALID,17.8787,VALID,165,VALID,0,
2000-04-26, 00:32:00,VALID,916.33,VALID,0,VALID,98.3523,VALID,0,VALID,17.8854,VALID,148,VALID,0,
2000-04-26, 00:33:00,VALID,916.304,VALID,0,VALID,98.2721,VALID,-0.0339617,VALID,17.8886,VALID,141,VALID,0,
2000-04-26, 00:34:00,VALID,916.306,VALID,0,VALID,98.2658,VALID,-0.0679233,VALID,17.9179,VALID,141,VALID,0,
2000-04-26, 00:35:00,VALID,916.298,VALID,0,VALID,98.159,VALID,-0.0849042,VALID,17.9569,VALID,141,VALID,0,
2000-04-26, 00:36:00,VALID,916.302,VALID,0,VALID,97.9453,VALID,-0.0169808,VALID,17.976,VALID,141,VALID,0,
2000-04-26, 00:37:00,VALID,916.305,VALID,0,VALID,97.466,VALID,-0.0169808,VALID,17.947,VALID,141,VALID,0,
2000-04-26, 00:38:00,VALID,916.313,VALID,0,VALID,97.3134,VALID,0,VALID,17.9237,VALID,154,VALID,0,
2000-04-26, 00:39:00,VALID,916.302,VALID,0,VALID,97.2854,VALID,0,VALID,17.9183,VALID,183,VALID,0,
2000-04-26, 00:40:00,VALID,916.296,VALID,0,VALID,97.4685,VALID,-0.0169808,VALID,17.8983,VALID,187,VALID,0,
2000-04-26, 00:41:00,VALID,916.283,VALID,0,VALID,97.5842,VALID,-0.0169808,VALID,17.8916,VALID,187,VALID,0,
2000-04-26, 00:42:00,VALID,916.266,VALID,0,VALID,97.5804,VALID,-0.0169808,VALID,17.8918,VALID,187,VALID,0,
2000-04-26, 00:43:00,VALID,916.239,VALID,0,VALID,97.658,VALID,-0.0169808,VALID,17.8854,VALID,187,VALID,0,
2000-04-26, 00:44:00,VALID,916.228,VALID,0,VALID,97.5804,VALID,-0.0169808,VALID,17.8662,VALID,130,VALID,0,
2000-04-26, 00:45:00,VALID,916.224,VALID,0,VALID,97.4113,VALID,-0.0169808,VALID,17.8365,VALID,130,VALID,0,
2000-04-26, 00:46:00,VALID,916.211,VALID,0,VALID,97.4113,VALID,-0.0339617,VALID,17.8171,VALID,130,VALID,0,
2000-04-26, 00:47:00,VALID,916.203,VALID,0,VALID,97.5384,VALID,-0.0849042,VALID,17.815,VALID,130,VALID,0,
2000-04-26, 00:48:00,VALID,916.211,VALID,0,VALID,97.691,VALID,-0.0169808,VALID,17.8118,VALID,130,VALID,0,
2000-04-26, 00:49:00,VALID,916.217,VALID,0,VALID,97.8792,VALID,-0.0169808,VALID,17.8312,VALID,130,VALID,0,
2000-04-26, 00:50:00,VALID,916.238,VALID,0,VALID,97.5906,VALID,-0.0339617,VALID,17.779,VALID,97,VALID,0,
2000-04-26, 00:51:00,VALID,916.25,VALID,0,VALID,98.1641,VALID,-0.0169808,VALID,17.9306,VALID,336,VALID,0.228125,
2000-04-26, 00:52:00,VALID,916.248,VALID,0,VALID,97.9326,VALID,-0.0339617,VALID,17.902,VALID,322,VALID,0.00434028,
2000-04-26, 00:53:00,VALID,916.233,VALID,0,VALID,97.4418,VALID,0,VALID,17.7788,VALID,223,VALID,0.00200321,
2000-04-26, 00:54:00,VALID,916.221,VALID,0,VALID,97.3223,VALID,-0.0339617,VALID,17.7338,VALID,128,VALID,0,
2000-04-26, 00:55:00,VALID,916.225,VALID,0,VALID,97.4723,VALID,-0.0339617,VALID,17.6953,VALID,71,VALID,0,
2000-04-26, 00:56:00,VALID,916.224,VALID,0,VALID,98.042,VALID,-0.0509425,VALID,17.7954,VALID,315,VALID,0,
2000-04-26, 00:57:00,VALID,916.213,VALID,0,VALID,98.3599,VALID,-0.0679233,VALID,17.857,VALID,301,VALID,0,
2000-04-26, 00:58:00,VALID,916.198,VALID,0,VALID,98.1831,VALID,-0.0169808,VALID,17.8215,VALID,177,VALID,0,
2000-04-26, 00:59:00,VALID,916.187,VALID,0,VALID,98.0077,VALID,-0.0509425,VALID,17.7502,VALID,147,VALID,0,
2000-04-26, 01:00:00,VALID,916.175,VALID,0,VALID,98.1157,VALID,-0.0509425,VALID,17.7601,VALID,146,VALID,0,
2000-04-26, 01:01:00,VALID,916.185,VALID,0,VALID,98.1946,VALID,-0.0169808,VALID,17.7763,VALID,129,VALID,0,
2000-04-26, 01:02:00,VALID,916.162,VALID,0,VALID,98.0483,VALID,-0.0169808,VALID,17.7114,VALID,131,VALID,0,
2000-04-26, 01:03:00,VALID,916.156,VALID,0,VALID,98.2607,VALID,0,VALID,17.7276,VALID,124,VALID,0.286859,
2000-04-26, 01:04:00,VALID,916.172,VALID,0,VALID,98.2582,VALID,-0.0339617,VALID,17.7108,VALID,123,VALID,0,
2000-04-26, 01:05:00,VALID,916.184,VALID,0,VALID,98.3128,VALID,0,VALID,17.7142,VALID,123,VALID,0.00105574,
2000-04-26, 01:06:00,VALID,916.179,VALID,0,VALID,98.365,VALID,-0.0339617,VALID,17.7246,VALID,123,VALID,0,
2000-04-26, 01:07:00,VALID,916.189,VALID,0,VALID,98.5455,VALID,0.0169808,VALID,17.7401,VALID,126,VALID,0.108724,
2000-04-26, 01:08:00,VALID,916.179,VALID,0,VALID,98.6447,VALID,0.0849042,VALID,17.7484,VALID,147,VALID,0.440905,
2000-04-26, 01:09:00,VALID,916.182,VALID,0,VALID,98.5595,VALID,0.0849042,VALID,17.7323,VALID,171,VALID,0.123884,
2000-04-26, 01:10:00,VALID,916.191,VALID,0,VALID,98.3929,VALID,0.101885,VALID,17.6705,VALID,133,VALID,0.321157,
2000-04-26, 01:11:00,VALID,916.199,VALID,0,VALID,98.4502,VALID,0.101885,VALID,17.694,VALID,73,VALID,0.552009,
2000-04-26, 01:12:00,VALID,916.21,VALID,0,VALID,98.6498,VALID,0.0509425,VALID,17.7519,VALID,88,VALID,0.545356,
2000-04-26, 01:13:00,VALID,916.19,VALID,0,VALID,98.6752,VALID,0.0849042,VALID,17.7712,VALID,84,VALID,0.706597,
2000-04-26, 01:14:00,VALID,916.188,VALID,0,VALID,98.7465,VALID,0.0679233,VALID,17.8037,VALID,73,VALID,0.675347,
2000-04-26, 01:15:00,VALID,916.185,VALID,0,VALID,98.8367,VALID,0.0509425,VALID,17.839,VALID,75,VALID,0.878084,
2000-04-26, 01:16:00,VALID,916.177,VALID,0,VALID,98.7859,VALID,0.0849042,VALID,17.8427,VALID,101,VALID,0.773872,
2000-04-26, 01:17:00,VALID,916.163,VALID,0,VALID,98.7643,VALID,0.0679233,VALID,17.8261,VALID,110,VALID,0.701389,
2000-04-26, 01:18:00,VALID,916.163,VALID,0,VALID,98.7655,VALID,0.101885,VALID,17.8393,VALID,104,VALID,1.10837,
2000-04-26, 01:19:00,VALID,916.168,VALID,0,VALID,98.5735,VALID,0.0679233,VALID,17.8169,VALID,106,VALID,0.861161,
2000-04-26, 01:20:00,VALID,916.174,VALID,0,VALID,98.3268,VALID,0.0849042,VALID,17.7643,VALID,97,VALID,1.19806,
2000-04-26, 01:21:00,VALID,916.165,VALID,0,VALID,98.0967,VALID,0.0849042,VALID,17.7127,VALID,95,VALID,0.892411,
2000-04-26, 01:22:00,VALID,916.164,VALID,0,VALID,98.2416,VALID,0.0169808,VALID,17.7299,VALID,84,VALID,1.00955,
2000-04-26, 01:23:00,VALID,916.16,VALID,0,VALID,98.1971,VALID,-0.0169808,VALID,17.75,VALID,89,VALID,1.30228,
2000-04-26, 01:24:00,VALID,916.144,VALID,0,VALID,98.1615,VALID,-0.0169808,VALID,17.8113,VALID,78,VALID,0.777232,
2000-04-26, 01:25:00,VALID,916.135,VALID,0,VALID,98.0191,VALID,-0.0169808,VALID,17.8531,VALID,81,VALID,0.352196,
2000-04-26, 01:26:00,VALID,916.117,VALID,0,VALID,98.0522,VALID,0,VALID,17.9274,VALID,63,VALID,0.184598,
2000-04-26, 01:27:00,VALID,916.089,VALID,0,VALID,97.9441,VALID,-0.0339617,VALID,17.9698,VALID,105,VALID,0.0366753,
2000-04-26, 01:28:00,VALID,916.058,VALID,0,VALID,97.7012,VALID,-0.0169808,VALID,17.9859,VALID,116,VALID,0,
2000-04-26, 01:29:00,VALID,916.047,VALID,0,VALID,97.3286,VALID,-0.0169808,VALID,17.9696,VALID,116,VALID,0,
2000-04-26, 01:30:00,VALID,916.03,VALID,0,VALID,97.1748,VALID,-0.0169808,VALID,17.9564,VALID,116,VALID,0,
2000-04-26, 01:31:00,VALID,916.018,VALID,0,VALID,96.9955,VALID,-0.0169808,VALID,17.9274,VALID,116,VALID,0,
2000-04-26, 01:32:00,VALID,915.987,VALID,0,VALID,96.923,VALID,0,VALID,17.9082,VALID,116,VALID,0,
2000-04-26, 01:33:00,VALID,915.986,VALID,0,VALID,96.8785,VALID,-0.0339617,VALID,17.8761,VALID,153,VALID,0,
2000-04-26, 01:34:00,VALID,915.975,VALID,0,VALID,97.0323,VALID,-0.0509425,VALID,17.8503,VALID,148,VALID,0,
2000-04-26, 01:35:00,VALID,915.985,VALID,0,VALID,96.9891,VALID,-0.0679233,VALID,17.8245,VALID,144,VALID,0,
2000-04-26, 01:36:00,VALID,915.983,VALID,0,VALID,96.8772,VALID,-0.0679233,VALID,17.7693,VALID,157,VALID,0,
2000-04-26, 01:37:00,VALID,915.981,VALID,0,VALID,96.9446,VALID,0,VALID,17.7624,VALID,210,VALID,0,
2000-04-26, 01:38:00,VALID,915.958,VALID,0,VALID,97.2561,VALID,0.0169808,VALID,17.7816,VALID,210,VALID,0,
2000-04-26, 01:39:00,VALID,915.949,VALID,0,VALID,97.2383,VALID,0,VALID,17.8236,VALID,195,VALID,0,
2000-04-26, 01:40:00,VALID,915.947,VALID,0,VALID,96.8187,VALID,-0.0169808,VALID,17.8457,VALID,161,VALID,0,
2000-04-26, 01:41:00,VALID,915.939,VALID,0,VALID,96.2147,VALID,0,VALID,17.8559,VALID,149,VALID,0,
2000-04-26, 01:42:00,VALID,915.948,VALID,0,VALID,96.2465,VALID,-0.0169808,VALID,17.8529,VALID,148,VALID,0,
2000-04-26, 01:43:00,VALID,915.944,VALID,0,VALID,96.2681,VALID,0,VALID,17.8628,VALID,115,VALID,0.0878906,
2000-04-26, 01:44:00,VALID,915.964,VALID,0,VALID,96.216,VALID,0.0169808,VALID,17.8914,VALID,94,VALID,0.165582,
2000-04-26, 01:45:00,VALID,915.976,VALID,0,VALID,95.8828,VALID,0,VALID,17.9108,VALID,118,VALID,0.315173,
2000-04-26, 01:46:00,VALID,915.976,VALID,0,VALID,95.4492,VALID,0,VALID,17.8879,VALID,116,VALID,0.304688,
2000-04-26, 01:47:00,VALID,915.985,VALID,0,VALID,95.4454,VALID,0,VALID,17.8817,VALID,80,VALID,0.28559,
2000-04-26, 01:48:00,VALID,915.995,VALID,0,VALID,95.3932,VALID,0.0169808,VALID,17.8686,VALID,111,VALID,0.633213,
2000-04-26, 01:49:00,VALID,915.974,VALID,0,VALID,95.1999,VALID,0.0339617,VALID,17.8298,VALID,115,VALID,0.905134,
2000-04-26, 01:50:00,VALID,915.974,VALID,0,VALID,95.603,VALID,0.0169808,VALID,17.7936,VALID,108,VALID,0.895481,
2000-04-26, 01:51:00,VALID,915.983,VALID,0,VALID,95.6183,VALID,0,VALID,17.7786,VALID,104,VALID,0.530357,
2000-04-26, 01:52:00,VALID,915.991,VALID,0,VALID,95.715,VALID,0,VALID,17.7334,VALID,78,VALID,0.459201,
2000-04-26, 01:53:00,VALID,915.991,VALID,0,VALID,96.2579,VALID,0.0169808,VALID,17.7265,VALID,43,VALID,0.252604,
2000-04-26, 01:54:00,VALID,916.012,VALID,0,VALID,96.7119,VALID,0.0339617,VALID,17.7553,VALID,42,VALID,0,
2000-04-26, 01:55:00,VALID,915.99,VALID,0,VALID,96.5339,VALID,0.0169808,VALID,17.7528,VALID,109,VALID,0,
2000-04-26, 01:56:00,VALID,915.989,VALID,0,VALID,96.4652,VALID,0,VALID,17.7168,VALID,143,VALID,0,
2000-04-26, 01:57:00,VALID,915.978,VALID,0,VALID,96.4741,VALID,0.0169808,VALID,17.7202,VALID,133,VALID,0,
2000-04-26, 01:58:00,VALID,915.977,VALID,0,VALID,96.1994,VALID,0.0169808,VALID,17.7004,VALID,133,VALID,0,
2000-04-26, 01:59:00,VALID,915.971,VALID,0,VALID,96.3851,VALID,0,VALID,17.6912,VALID,133,VALID,0,
2000-04-26, 02:00:00,VALID,915.974,VALID,0,VALID,96.5313,VALID,-0.0169808,VALID,17.6916,VALID,133,VALID,0,
2000-04-26, 02:01:00,VALID,915.974,VALID,0,VALID,96.7627,VALID,0,VALID,17.7078,VALID,134,VALID,0,
2000-04-26, 02:02:00,VALID,915.963,VALID,0,VALID,96.6674,VALID,-0.0169808,VALID,17.7401,VALID,132,VALID,0.177734,
2000-04-26, 02:03:00,VALID,915.966,VALID,0,VALID,96.249,VALID,0,VALID,17.7749,VALID,137,VALID,0.675881,
2000-04-26, 02:04:00,VALID,915.964,VALID,0,VALID,95.8307,VALID,0,VALID,17.7689,VALID,136,VALID,0.326339,
2000-04-26, 02:05:00,VALID,915.963,VALID,0,VALID,95.481,VALID,0.0169808,VALID,17.7456,VALID,133,VALID,0.225718,
2000-04-26, 02:06:00,VALID,915.958,VALID,0,VALID,95.4314,VALID,0.0169808,VALID,17.711,VALID,136,VALID,0.0502232,
2000-04-26, 02:07:00,VALID,915.947,VALID,0,VALID,95.8586,VALID,0,VALID,17.6843,VALID,153,VALID,0.427951,
2000-04-26, 02:08:00,VALID,915.948,VALID,0,VALID,95.6768,VALID,0,VALID,17.6882,VALID,166,VALID,0.314503,
2000-04-26, 02:09:00,VALID,915.944,VALID,0,VALID,95.7722,VALID,0.0169808,VALID,17.6524,VALID,162,VALID,0.113393,
2000-04-26, 02:10:00,VALID,915.949,VALID,0,VALID,95.9527,VALID,0.0169808,VALID,17.6201,VALID,162,VALID,0,
2000-04-26, 02:11:00,VALID,915.945,VALID,0,VALID,96.1893,VALID,0.0339617,VALID,17.5975,VALID,162,VALID,0.0709821,
2000-04-26, 02:12:00,VALID,915.958,VALID,0,VALID,96.4156,VALID,0,VALID,17.5846,VALID,160,VALID,0.13737,
2000-04-26, 02:13:00,VALID,915.955,VALID,0,VALID,96.6318,VALID,0,VALID,17.6107,VALID,158,VALID,0.0577257,
2000-04-26, 02:14:00,VALID,915.945,VALID,0,VALID,96.5644,VALID,0.0169808,VALID,17.6557,VALID,158,VALID,0,
2000-04-26, 02:15:00,VALID,915.939,VALID,0,VALID,96.3533,VALID,0,VALID,17.7011,VALID,150,VALID,0.101974,
2000-04-26, 02:16:00,VALID,915.934,VALID,0,VALID,95.9629,VALID,0.0169808,VALID,17.7493,VALID,132,VALID,0.42513,
2000-04-26, 02:17:00,VALID,915.923,VALID,0,VALID,95.2851,VALID,0,VALID,17.7334,VALID,132,VALID,0.570313,
2000-04-26, 02:18:00,VALID,915.91,VALID,0,VALID,95.2839,VALID,0.0339617,VALID,17.6557,VALID,129,VALID,0.461739,
2000-04-26, 02:19:00,VALID,915.897,VALID,0,VALID,95.5267,VALID,0.0169808,VALID,17.5749,VALID,131,VALID,0.321652,
2000-04-26, 02:20:00,VALID,915.886,VALID,0,VALID,96.0863,VALID,0,VALID,17.5364,VALID,131,VALID,0.289063,
2000-04-26, 02:21:00,VALID,915.872,VALID,0,VALID,96.441,VALID,0,VALID,17.5198,VALID,131,VALID,0.0930804,
2000-04-26, 02:22:00,VALID,915.862,VALID,0,VALID,96.2363,VALID,-0.0339617,VALID,17.4884,VALID,131,VALID,0,
2000-04-26, 02:23:00,VALID,915.869,VALID,0,VALID,96.0583,VALID,-0.0339617,VALID,17.4508,VALID,131,VALID,0,
2000-04-26, 02:24:00,VALID,915.875,VALID,0,VALID,96.324,VALID,-0.0849042,VALID,17.3853,VALID,131,VALID,0,
2000-04-26, 02:25:00,VALID,915.856,VALID,0,VALID,96.8937,VALID,-0.0509425,VALID,17.3726,VALID,131,VALID,0,
2000-04-26, 02:26:00,VALID,915.857,VALID,0,VALID,97.148,VALID,-0.0679233,VALID,17.353,VALID,131,VALID,0,
2000-04-26, 02:27:00,VALID,915.867,VALID,0,VALID,97.2345,VALID,-0.0679233,VALID,17.3339,VALID,131,VALID,0,
2000-04-26, 02:28:00,VALID,915.867,VALID,0,VALID,97.2752,VALID,-0.101885,VALID,17.2887,VALID,131,VALID,0,
2000-04-26, 02:29:00,VALID,915.854,VALID,0,VALID,97.4036,VALID,-0.0509425,VALID,17.26,VALID,150,VALID,0,
2000-04-26, 02:30:00,VALID,915.863,VALID,0,VALID,97.5766,VALID,-0.0509425,VALID,17.2372,VALID,151,VALID,0,
2000-04-26, 02:31:00,VALID,915.866,VALID,0,VALID,97.7317,VALID,-0.0679233,VALID,17.2211,VALID,151,VALID,0,
2000-04-26, 02:32:00,VALID,915.871,VALID,0,VALID,98.0102,VALID,-0.0679233,VALID,17.2308,VALID,151,VALID,0,
2000-04-26, 02:33:00,VALID,915.872,VALID,0,VALID,98.2454,VALID,-0.0849042,VALID,17.2727,VALID,151,VALID,0,
2000-04-26, 02:34:00,VALID,915.875,VALID,0,VALID,98.3116,VALID,-0.0509425,VALID,17.3375,VALID,151,VALID,0,
2000-04-26, 02:35:00,VALID,915.893,VALID,0,VALID,98.2391,VALID,-0.0509425,VALID,17.3991,VALID,151,VALID,0,
2000-04-26, 02:36:00,VALID,915.896,VALID,0,VALID,98.089,VALID,-0.0849042,VALID,17.4503,VALID,151,VALID,0,
2000-04-26, 02:37:00,VALID,915.918,VALID,0,VALID,97.7037,VALID,0.0169808,VALID,17.4755,VALID,151,VALID,0,
2000-04-26, 02:38:00,VALID,915.918,VALID,0,VALID,97.3299,VALID,0.0509425,VALID,17.491,VALID,151,VALID,0,
2000-04-26, 02:39:00,VALID,915.918,VALID,0,VALID,97.0984,VALID,0,VALID,17.4751,VALID,151,VALID,0,
2000-04-26, 02:40:00,VALID,915.915,VALID,0,VALID,97.1074,VALID,0,VALID,17.4753,VALID,151,VALID,0,
2000-04-26, 02:41:00,VALID,915.928,VALID,0,VALID,97.087,VALID,0.0339617,VALID,17.4652,VALID,153,VALID,0,
2000-04-26, 02:42:00,VALID,915.919,VALID,0,VALID,96.7475,VALID,0.0169808,VALID,17.4817,VALID,161,VALID,0,
2000-04-26, 02:43:00,VALID,915.944,VALID,0,VALID,96.1651,VALID,0.0679233,VALID,17.42,VALID,165,VALID,0,
2000-04-26, 02:44:00,VALID,915.955,VALID,0,VALID,96.1282,VALID,0.0339617,VALID,17.3556,VALID,165,VALID,0,
2000-04-26, 02:45:00,VALID,915.955,VALID,0,VALID,96.2516,VALID,0,VALID,17.3072,VALID,165,VALID,0,
2000-04-26, 02:46:00,VALID,915.947,VALID,0,VALID,96.6369,VALID,0,VALID,17.291,VALID,160,VALID,0,
2000-04-26, 02:47:00,VALID,915.929,VALID,0,VALID,97.1506,VALID,0.0339617,VALID,17.3134,VALID,159,VALID,0,
2000-04-26, 02:48:00,VALID,915.913,VALID,0,VALID,97.2879,VALID,0.0169808,VALID,17.3754,VALID,159,VALID,0,
2000-04-26, 02:49:00,VALID,915.912,VALID,0,VALID,96.9675,VALID,0.0339617,VALID,17.4135,VALID,164,VALID,0,
2000-04-26, 02:50:00,VALID,915.898,VALID,0,VALID,96.5491,VALID,0.0679233,VALID,17.404,VALID,181,VALID,0,
2000-04-26, 02:51:00,VALID,915.895,VALID,0,VALID,96.7411,VALID,0.0339617,VALID,17.3879,VALID,200,VALID,0,
2000-04-26, 02:52:00,VALID,915.888,VALID,0,VALID,96.909,VALID,0,VALID,17.3621,VALID,200,VALID,0,
2000-04-26, 02:53:00,VALID,915.894,VALID,0,VALID,97.1455,VALID,0.0509425,VALID,17.3431,VALID,200,VALID,0,
2000-04-26, 02:54:00,VALID,915.892,VALID,0,VALID,97.4316,VALID,0,VALID,17.3459,VALID,200,VALID,0,
2000-04-26, 02:55:00,VALID,915.887,VALID,0,VALID,97.438,VALID,0.0169808,VALID,17.3461,VALID,200,VALID,0,
2000-04-26, 02:56:00,VALID,915.865,VALID,0,VALID,97.4291,VALID,0.0169808,VALID,17.3364,VALID,202,VALID,0,
2000-04-26, 02:57:00,VALID,915.863,VALID,0,VALID,97.0832,VALID,0,VALID,17.2811,VALID,231,VALID,0,
2000-04-26, 02:58:00,VALID,915.833,VALID,0,VALID,97.2116,VALID,0,VALID,17.2463,VALID,237,VALID,0.354818,
2000-04-26, 02:59:00,VALID,915.817,VALID,0,VALID,97.2701,VALID,0.0169808,VALID,17.2172,VALID,231,VALID,0.523655,
2000-04-26, 03:00:00,VALID,915.786,VALID,0,VALID,97.3782,VALID,0.0169808,VALID,17.1948,VALID,212,VALID,0.553043,
2000-04-26, 03:01:00,VALID,915.766,VALID,0,VALID,97.5651,VALID,0.0169808,VALID,17.1619,VALID,192,VALID,0.645399,
2000-04-26, 03:02:00,VALID,915.769,VALID,0,VALID,97.6986,VALID,0.0339617,VALID,17.1524,VALID,197,VALID,0.362847,
2000-04-26, 03:03:00,VALID,915.747,VALID,0,VALID,97.7699,VALID,0.0339617,VALID,17.1367,VALID,197,VALID,0.00961538,
2000-04-26, 03:04:00,VALID,915.766,VALID,0,VALID,97.8716,VALID,0.0169808,VALID,17.1107,VALID,197,VALID,0,
2000-04-26, 03:05:00,VALID,915.757,VALID,0,VALID,97.9835,VALID,0,VALID,17.1107,VALID,197,VALID,0,
2000-04-26, 03:06:00,VALID,915.743,VALID,0,VALID,98.2556,VALID,0,VALID,17.1365,VALID,198,VALID,0.309821,
2000-04-26, 03:07:00,VALID,915.737,VALID,0,VALID,98.1386,VALID,0,VALID,17.107,VALID,213,VALID,0.550998,
2000-04-26, 03:08:00,VALID,915.728,VALID,0,VALID,98.1221,VALID,0.0339617,VALID,17.0816,VALID,219,VALID,0.412059,
2000-04-26, 03:09:00,VALID,915.725,VALID,0,VALID,98.1717,VALID,0.0169808,VALID,17.0655,VALID,222,VALID,0.486384,
2000-04-26, 03:10:00,VALID,915.726,VALID,0,VALID,98.2721,VALID,0.0339617,VALID,17.0618,VALID,213,VALID,0.443623,
2000-04-26, 03:11:00,VALID,915.727,VALID,0,VALID,98.3713,VALID,0.0339617,VALID,17.0558,VALID,205,VALID,0.522545,
2000-04-26, 03:12:00,VALID,915.739,VALID,0,VALID,98.4146,VALID,0.0169808,VALID,17.0523,VALID,201,VALID,0.479601,
2000-04-26, 03:13:00,VALID,915.726,VALID,0,VALID,98.5748,VALID,0.0339617,VALID,17.0556,VALID,211,VALID,0.550998,
2000-04-26, 03:14:00,VALID,915.724,VALID,0,VALID,98.6702,VALID,0.0169808,VALID,17.0556,VALID,209,VALID,0.582248,
2000-04-26, 03:15:00,VALID,915.726,VALID,0,VALID,98.8139,VALID,0.0169808,VALID,17.0687,VALID,202,VALID,0.826069,
2000-04-26, 03:16:00,VALID,915.723,VALID,0,VALID,98.8901,VALID,0,VALID,17.0878,VALID,198,VALID,0.947266,
2000-04-26, 03:17:00,VALID,915.723,VALID,0,VALID,99.016,VALID,0,VALID,17.1008,VALID,190,VALID,0.81033,
2000-04-26, 03:18:00,VALID,915.731,VALID,0,VALID,99.0249,VALID,0,VALID,17.124,VALID,192,VALID,0.61258,
2000-04-26, 03:19:00,VALID,915.742,VALID,0,VALID,98.9715,VALID,0.0169808,VALID,17.1044,VALID,203,VALID,0.695759,
2000-04-26, 03:20:00,VALID,915.731,VALID,0,VALID,99.1623,VALID,0.0339617,VALID,17.1296,VALID,190,VALID,1.08024,
2000-04-26, 03:21:00,VALID,915.713,VALID,0,VALID,99.1928,VALID,0,VALID,17.1787,VALID,177,VALID,0.820536,
2000-04-26, 03:22:00,VALID,915.695,VALID,0,VALID,99.2856,VALID,-0.0509425,VALID,17.2049,VALID,181,VALID,0.857856,
2000-04-26, 03:23:00,VALID,915.683,VALID,0,VALID,99.2983,VALID,-0.101885,VALID,17.254,VALID,188,VALID,0.880008,
2000-04-26, 03:24:00,VALID,915.673,VALID,0,VALID,99.2627,VALID,-0.0849042,VALID,17.2861,VALID,209,VALID,0.751786,
2000-04-26, 03:25:00,VALID,915.673,VALID,0,VALID,99.1483,VALID,-0.118866,VALID,17.2607,VALID,215,VALID,0.581715,
2000-04-26, 03:26:00,VALID,915.661,VALID,0,VALID,99.1292,VALID,-0.0849042,VALID,17.2508,VALID,224,VALID,0.401339,
2000-04-26, 03:27:00,VALID,915.65,VALID,0,VALID,99.1737,VALID,-0.0509425,VALID,17.2635,VALID,220,VALID,0.786024,
2000-04-26, 03:28:00,VALID,915.644,VALID,0,VALID,99.2958,VALID,-0.0849042,VALID,17.3091,VALID,206,VALID,0.661024,
2000-04-26, 03:29:00,VALID,915.651,VALID,0,VALID,99.2971,VALID,-0.0679233,VALID,17.3444,VALID,199,VALID,0.650825,
2000-04-26, 03:30:00,VALID,915.663,VALID,0,VALID,99.2004,VALID,-0.101885,VALID,17.341,VALID,200,VALID,0.567229,
2000-04-26, 03:31:00,VALID,915.664,VALID,0,VALID,99.1585,VALID,-0.0849042,VALID,17.3313,VALID,205,VALID,0.452691,
2000-04-26, 03:32:00,VALID,915.681,VALID,0,VALID,99.0758,VALID,-0.0509425,VALID,17.3057,VALID,205,VALID,0.531901,
2000-04-26, 03:33:00,VALID,915.69,VALID,0,VALID,98.9957,VALID,-0.0679233,VALID,17.2799,VALID,203,VALID,0.627003,
2000-04-26, 03:34:00,VALID,915.699,VALID,0,VALID,99.0097,VALID,-0.0679233,VALID,17.2469,VALID,203,VALID,0.738616,
2000-04-26, 03:35:00,VALID,915.707,VALID,0,VALID,98.9525,VALID,-0.0679233,VALID,17.2306,VALID,188,VALID,0.844383,
2000-04-26, 03:36:00,VALID,915.721,VALID,0,VALID,99.2004,VALID,-0.0679233,VALID,17.2435,VALID,183,VALID,1.17054,
2000-04-26, 03:37:00,VALID,915.734,VALID,0,VALID,99.2805,VALID,-0.0849042,VALID,17.3408,VALID,189,VALID,1.2487,
2000-04-26, 03:38:00,VALID,915.741,VALID,0,VALID,99.1534,VALID,-0.0509425,VALID,17.4153,VALID,187,VALID,1.22516,